Location: Ravensburg
(47.7866°N, 9.6124°E)
Time: 15:43:38
(UTC+02:00)

ITAMSAT 1 - Pass Details

Date: 23 March 2026
Orbit: 782 x 793 km, 98.7° (Epoch: 18 April)

Event Time Altitude Azimuth Distance (km) Brightness Sun altitude
Exits shadow 21:18:55 61° 51° (NE) 892 7.7 -26.0°
Drops below altitude 10° 21:23:43 10° 351° (N) 2,361 10.7 -26.7°
Sets 21:26:04 0° 349° (NNW) 3,296 11.6 -27.0°
